Home > Weather > Waterford > Past weeks

Flag for Ireland Weather for the Past 2 Weeks in Waterford, Ireland

Now
39 °F

Passing clouds.


Feels Like: 34 °F
Forecast: 42 / 54 °F
Wind: 8 mph from Southwest

Location: Cork Airport

Current Time: May 3, 2016 at 12:51:10 AM

Latest Report: May 3, 2016 at 12:30 AM


Visibility: N/A

Pressure: 30.24 "Hg

Humidity: 87%

Dew Point: 36 °F

Location of WaterfordLocation

Historic Weather in Waterford — Graph

°F

Waterford Temperature Yesterday

Maximum temperature yesterday: 52 °F (at 12:00 AM)
Minimum temperature yesterday: 41 °F (at 10:30 PM)
Average temperature yesterday: 50 °F

High & Low Weather Summary for the Past Weeks

 TemperatureHumidityPressure
High57 °F (May 1, 6:00 PM)100% (Apr 22, 9:30 AM)30.36 "Hg (Apr 22, 9:30 AM)
Low34 °F (Apr 27, 3:00 AM)31% (Apr 20, 6:00 PM)29.86 "Hg (Apr 28, 3:00 PM)
Average47 °F74%30.14 "Hg
* Reported Midnight between Apr 17 and Apr 18 — Midnight between May 2 and May 3, Waterford, Weather by CustomWeather, © 2016

Note: Actual official high and low records may vary slightly from our data, if they occured in-between our weather recording intervals... More about our weather records

Advertising

Waterford Weather History for the Previous 24 Hours

Scroll right to see more
 ConditionsComfort  
Time TempWeatherWind HumidityBarometerVisibility
12:00 AM
Tue, May 3
39 °FPassing clouds.8 mph87%30.24 "HgN/A
11:00 PM
Mon, May 2
45 °FPassing clouds.10 mph71%30.24 "HgN/A
10:30 PM41 °FPassing clouds.7 mph76%30.24 "HgN/A
10:00 PM46 °FPassing clouds.7 mph71%30.21 "HgN/A
9:30 PM46 °FPartly sunny.9 mph66%30.21 "HgN/A
9:00 PM48 °FPartly sunny.8 mph62%30.18 "HgN/A
8:30 PM48 °FPassing clouds.7 mph66%30.18 "HgN/A
8:00 PM48 °FScattered clouds.15 mph66%30.18 "HgN/A
7:30 PM50 °FScattered clouds.15 mph58%30.15 "HgN/A
7:00 PM50 °FScattered clouds.14 mph58%30.15 "HgN/A
6:30 PM52 °FScattered clouds.18 mph58%30.15 "HgN/A
6:00 PM52 °FScattered clouds.18 mph62%30.12 "HgN/A
5:30 PM52 °FScattered clouds.21 mph50%30.12 "HgN/A
5:00 PM52 °FPassing clouds.20 mph54%30.12 "HgN/A
4:30 PM50 °FPartly sunny.21 mph62%30.12 "HgN/A
4:00 PM52 °FScattered clouds.21 mph58%30.09 "HgN/A
3:30 PM52 °FScattered clouds.15 mph58%30.09 "HgN/A
3:00 PM50 °FPartly sunny.17 mph67%30.09 "HgN/A
2:30 PM50 °FScattered clouds.17 mph67%30.09 "HgN/A
2:00 PM50 °FPassing clouds.14 mph71%30.07 "HgN/A
1:30 PM52 °FScattered clouds.21 mph62%30.07 "HgN/A
1:00 PM50 °FSprinkles. Partly sunny.22 mph67%30.04 "HgN/A
12:30 PM52 °FSprinkles. Partly sunny.20 mph58%30.07 "HgN/A
12:00 PM52 °FPassing clouds.22 mph62%30.04 "HgN/A
11:30 AM52 °FScattered showers. Partly sunny.23 mph62%30.04 "HgN/A
11:00 AM52 °FScattered showers. Scattered clouds.23 mph54%30.04 "HgN/A
10:30 AM52 °FPassing clouds.17 mph62%30.04 "HgN/A
10:00 AM50 °FPassing clouds.17 mph71%30.01 "HgN/A
9:30 AM50 °FScattered clouds.18 mph76%30.01 "HgN/A
9:00 AM50 °FPartly sunny.13 mph88%30.01 "HgN/A
8:30 AM48 °FPassing clouds.9 mph94%30.01 "HgN/A
8:00 AM46 °FPassing clouds.8 mph93%29.98 "HgN/A
7:30 AM46 °FPassing clouds.9 mph87%29.98 "HgN/A
6:00 AM48 °FLight rain. Partly cloudy.20 mph94%29.95 "HgN/A
5:00 AM50 °FLight rain. Passing clouds.21 mph100%29.95 "Hg2 mi
4:00 AM50 °FFog.29 mph100%29.98 "Hg2 mi
3:30 AM50 °FFog.30 mph100%29.95 "Hg2 mi
3:00 AM52 °FFog.21 mph94%29.98 "Hg1 mi
2:30 AM50 °FFog.24 mph100%29.98 "Hg1 mi
2:00 AM50 °FFog.18 mph100%30.01 "Hg2 mi
1:30 AM50 °FFog.21 mph100%30.04 "Hg3 mi
1:00 AM50 °FFog.22 mph100%30.04 "Hg1 mi
12:30 AM50 °FFog.21 mph100%30.07 "Hg1 mi
12:00 AM52 °FFog.20 mph94%30.07 "Hg1 mi
Weather by CustomWeather, © 2016

See weather overviewHow to use our weather pages